Regional Weather Roundup
Issued by NWS

Home | Current Version | Previous Version | Text Only | Print | Product List | Glossary Off
Versions: 1 2 3 4 5 6 7 8 9 10 11 12 13 14 15 16 17 18 19 20 21 22 23 24 25 26 27 28

000
ASUS45 KBOI 251510
RWRID

IDAHO REGIONAL WEATHER ROUNDUP
NATIONAL WEATHER SERVICE BOISE ID
900 AM MDT MON SEP 25 2017

NOTE: "FAIR" INDICATES FEW OR NO CLOUDS BELOW 12000 FEET
WITH NO SIGNIFICANT WEATHER AND/OR OBSTRUCTIONS TO VISIBILITY

IDZ012-014-251600-
SOUTHWEST IDAHO


CITY           SKY/WX    TMP DP  RH WIND       PRES   REMARKS
BOISE          SUNNY     46  33  60 S7        30.13R
CALDWELL       SUNNY     43  39  86 NE5       30.14R
MOUNTAIN HOME  SUNNY    N/A N/A N/A E7        30.13R
$$

IDZ016-017-251600-
SOUTHCENTRAL IDAHO


CITY           SKY/WX    TMP DP  RH WIND       PRES   REMARKS
BURLEY         SUNNY     40  31  70 S3        30.13R
JEROME         SUNNY     42  36  79 SE3       30.13R
TWIN FALLS     SUNNY     46  34  62 S9        30.13R
$$

IDZ019>023-251600-
SOUTHEAST IDAHO


CITY           SKY/WX    TMP DP  RH WIND       PRES   REMARKS
IDAHO FALLS    MOSUNNY   38  33  82 S5        30.15S WCI  34
POCATELLO      MOSUNNY   43  37  79 CALM      30.16R
REXBURG        SUNNY     36  32  85 E3        30.15R
$$

IDZ006-010-011-018-031-032-251600-
CENTRAL IDAHO MOUNTAINS


CITY           SKY/WX    TMP DP  RH WIND       PRES   REMARKS
MCCALL         SUNNY     35  32  88 CALM      30.14R
HAILEY         PTSUNNY   39  28  65 NW12      30.15S WCI  32
STANLEY          N/A     27  23  85 CALM      30.19S
SALMON         CLOUDY    42  38  85 CALM      30.15S
CHALLIS        CLOUDY    35  31  85 CALM      30.16S
$$

IDZ002-004-006-007-026-251600-
NORTHERN IDAHO


CITY           SKY/WX    TMP DP  RH WIND       PRES   REMARKS
LEWISTON       PTSUNNY   54  44  69 E9        30.09R
LOWELL           N/A     46  42  86 CALM      30.17R
COEUR D`ALENE  CLOUDY    52  45  77 SE9       30.09R
MULLAN PASS    CLOUDY    41  34  76 NW6       30.11S
$$




USA.gov is the U.S. government's official web portal to all federal, state and local government web resources and services.